Weather History for Ottawa International, ON

Change the Weather History Date:

Sunday, December 8, 2013

  Actual Average Record
Temperature  
Mean Temperature 20 °F -  
Max Temperature 26 °F 24 °F 39 °F (2004)
Min Temperature 14 °F 9 °F -5 °F (2000)
Degree Days  
Heating Degree Days 45    
Moisture  
Dew Point 10 °F    
Average Humidity 63    
Maximum Humidity 74    
Minimum Humidity 37    
Precipitation  
Precipitation 0.00 in 0.10 in - ()
Sea Level Pressure  
Sea Level Pressure 30.53 in    
Wind  
Wind Speed 4 mph ()    
Max Wind Speed 9 mph    
Max Gust Speed -    
Visibility 15.0 miles    
Events      
Averages and records for this station are not official NWS values.
T = Trace of Precipitation, MM = Missing Value Source: Averaged Metar Reports

Daily Weather History Graph

Daily Weather History Graph

Search for Another Location

Airport:

Trip Planner

Search our weather history database for the weather conditions in past years. The results will help you decide how hot, cold, wet, or windy it might be!

Date:

Astronomy

Dec. 08, 2013 Rise Set
Actual Time 7:29 AM EST 4:19 PM EST
Civil Twilight 6:55 AM EST 4:53 PM EST
Nautical Twilight 6:18 AM EST 5:30 PM EST
Astronomical Twilight 5:42 AM EST 6:06 PM EST
Moon 11:35 AM EST (12/8) 11:21 PM EST (12/8)
Length of Visible Light 9h 58m
Length of Day
8h 50m
Waxing Crescent, 40% of the Moon is Illuminated
Dec 8
Waxing Crescent
Dec 9
First Quarter
Dec 17
Full
Dec 25
Last Quarter
Jan 1
New

Hourly Weather History & Observations

Time (EST) Temp. Windchill Dew Point Humidity Pressure Visibility Wind Dir Wind Speed Gust Speed Precip Events Conditions
12:00 AM 19.4 °F 12.8 °F 8.6 °F 63% 30.51 in 15.0 mi SSW 4.6 mph - N/A   Partly Cloudy
1:00 AM 17 °F - 7 °F 52% 30.51 in 15 mi WSW 4.6 mph - -   Scattered Clouds
1:00 AM 17.6 °F 10.7 °F 6.8 °F 63% 30.51 in 15.0 mi WSW 4.6 mph - N/A   Partly Cloudy
2:00 AM 15.8 °F 7.2 °F 8.6 °F 73% 30.51 in 15.0 mi SSW 5.8 mph - N/A   Partly Cloudy
3:00 AM 15.8 °F 7.2 °F 8.6 °F 73% 30.51 in 15.0 mi SW 5.8 mph - N/A   Clear
4:00 AM 15.8 °F 8.6 °F 6.8 °F 68% 30.52 in 15.0 mi West 4.6 mph - N/A   Mostly Cloudy
5:00 AM 17.6 °F 10.7 °F 8.6 °F 68% 30.54 in 15.0 mi West 4.6 mph - N/A   Mostly Cloudy
6:00 AM 17.6 °F 10.7 °F 10.4 °F 73% 30.55 in 15.0 mi West 4.6 mph - N/A   Mostly Cloudy
7:00 AM 18 °F - 10 °F 58% 30.57 in 15 mi West 4.6 mph - -   Mostly Cloudy
7:00 AM 17.6 °F 9.3 °F 10.4 °F 73% 30.57 in 15.0 mi West 5.8 mph - N/A   Mostly Cloudy
8:00 AM 17.6 °F 10.7 °F 10.4 °F 73% 30.56 in 15.0 mi NW 4.6 mph - N/A   Overcast
9:00 AM 19.4 °F - 12.2 °F 74% 30.57 in 15.0 mi WSW 2.3 mph - N/A   Mostly Cloudy
10:00 AM 21.2 °F 16.4 °F 10.4 °F 63% 30.59 in 15.0 mi SW 3.5 mph - N/A   Scattered Clouds
11:00 AM 23.0 °F 15.8 °F 6.8 °F 50% 30.57 in 15.0 mi West 5.8 mph - N/A   Scattered Clouds
12:00 PM 24.8 °F 20.5 °F 10.4 °F 54% 30.56 in 15.0 mi SW 3.5 mph - N/A   Scattered Clouds
1:00 PM 26 °F - 10 °F 37% 30.54 in 15 mi SW 2.3 mph - -   Partly Cloudy
1:00 PM 24.8 °F 20.5 °F 10.4 °F 54% 30.54 in 15.0 mi SW 3.5 mph - N/A   Mostly Cloudy
2:00 PM 26.6 °F - 10.4 °F 51% 30.52 in 15.0 mi Calm Calm - N/A   Mostly Cloudy
3:00 PM 26.6 °F - 12.2 °F 55% 30.52 in 15.0 mi NE 2.3 mph - N/A   Overcast
4:00 PM 24.8 °F - 10.4 °F 54% 30.53 in 15.0 mi Calm Calm - N/A   Overcast
5:00 PM 23.0 °F 15.8 °F 10.4 °F 59% 30.53 in 15.0 mi East 5.8 mph - N/A   Mostly Cloudy
6:00 PM 21.2 °F 12.6 °F 12.2 °F 68% 30.51 in 15.0 mi East 6.9 mph - N/A   Overcast
7:00 PM 20 °F - 12 °F 60% 30.50 in 15 mi East 5.8 mph - -   Mostly Cloudy
7:00 PM 19.4 °F 11.5 °F 12.2 °F 74% 30.50 in 15.0 mi East 5.8 mph - N/A   Mostly Cloudy
8:00 PM 19.4 °F 9.5 °F 12.2 °F 74% 30.49 in 15.0 mi East 8.1 mph - N/A   Mostly Cloudy
9:00 PM 21.2 °F 11.7 °F 12.2 °F 68% 30.48 in 15.0 mi East 8.1 mph - N/A   Overcast
10:00 PM 21.2 °F 10.9 °F 12.2 °F 68% 30.46 in 15.0 mi East 9.2 mph - N/A   Overcast
11:00 PM 21.2 °F 10.9 °F 12.2 °F 68% 30.43 in 15.0 mi East 9.2 mph - N/A   Overcast